sat.trackr.live / text

‹ back to catalog

STARLINK-30305

NORAD 57775 · 2023-134E

PAYLOAD ACTIVE UNKNOWN

§ Identity

Operator
Country
US
Launch date
2023-09-04
Launch site
AFETR
Launch vehicle
Mass (kg)
RCS (m²)

Purposes: comms

External: N2YO · Heavens-Above · Gunter

§ Orbital elements

Epoch: 2026-09-20T03:33:55.479456Z

Period
94.27 min
Inclination
43.0029°
Eccentricity
0.0000879
Mean motion
15.27579917 rev/d
Perigee alt
482.4 km
Apogee alt
483.7 km
Semi-major
6,861.2 km
B*
4.8628e-5
RAAN
176.5586°
Arg perigee
279.8029°
Mean anomaly
80.2724°
Rev number
16,924

§ Raw data

STARLINK-303051 57775U 23134E   26263.14855879  .00001076  00000+0  48628-4 0  99952 57775  43.0029 176.5586 0000879 279.8029  80.2724 15.27579917169248

JSON: /api/v1/satellites/57775 · /tle

For live sub-satellite position, see the globe view (requires WebGL).

§ Visibility from observer

Set your observer location to see the next 7 days of passes ≥ 10°. The values pass through the URL so the page stays shareable.

No JS? Fill the form by hand. The geolocation button needs JavaScript.